Burns, OR

5:23 PM PDT on June 28, 2017 (GMT -0700)
Burns Municipal

Weather History for KBNO - November, 2012

Change the Weather History Date:

Wednesday, November 7, 2012

  Actual Average Record
Temperature  
Mean Temperature 43 °F 37 °F  
Max Temperature 58 °F 50 °F 69 °F (2006)
Min Temperature 27 °F 24 °F 9 °F (1993)
Degree Days  
Heating Degree Days 22 28  
Month to date heating degree days 142 189  
Since 1 July heating degree days 967 1239  
Cooling Degree Days 0 0  
Month to date cooling degree days 0 0  
Year to date cooling degree days 309 215  
Moisture  
Dew Point 30 °F    
Average Humidity 65    
Maximum Humidity 92    
Minimum Humidity 38    
Precipitation  
Precipitation 0.00 in 0.03 in 0.83 in (1942)
Month to date precipitation T 0.24  
Year to date precipitation 7.20 8.44  
Sea Level Pressure  
Sea Level Pressure 30.00 in    
Wind  
Wind Speed 6 mph (West)    
Max Wind Speed 18 mph    
Max Gust Speed 24 mph    
Visibility 10 miles    
Events      
T = Trace of Precipitation, MM = Missing Value Source: NWS Daily Summary

Daily Weather History Graph

Daily Weather History Graph

Search for Another Location

Airport or City:

Trip Planner

Search our weather history database for the weather conditions in past years. The results will help you decide how hot, cold, wet, or windy it might be!

Date:

Astronomy

Nov. 07, 2012 Rise Set
Actual Time 6:40 AM PST 4:38 PM PST
Civil Twilight 6:09 AM PST 5:08 PM PST
Nautical Twilight 5:35 AM PST 5:42 PM PST
Astronomical Twilight 5:01 AM PST 6:16 PM PST
Moon No Moon Rise 1:01 PM PST (11/7)
Length of Visible Light 10h 59m
Length of Day
9h 58m
Last Quarter, 42% of the Moon is Illuminated
Nov 7
Last Quarter
Nov 13
New
Nov 20
First Quarter
Nov 28
Full
Dec 6
Last Quarter

Hourly Weather History & Observations

Time (PST) Temp. Windchill Dew Point Humidity Pressure Visibility Wind Dir Wind Speed Gust Speed Precip Events Conditions
12:53 AM 33.1 °F 30.0 °F 28.9 °F 85% 30.05 in 10.0 mi NNW 3.5 mph - N/A   Clear
1:53 AM 28.0 °F 24.2 °F 25.0 °F 88% 30.05 in 10.0 mi NW 3.5 mph - N/A   Clear
2:53 AM 28.9 °F - 26.1 °F 89% 30.03 in 10.0 mi Calm Calm - N/A   Clear
3:53 AM 30.0 °F 25.2 °F 27.0 °F 88% 30.04 in 10.0 mi West 4.6 mph - N/A   Clear
4:53 AM 30.9 °F 26.2 °F 28.0 °F 89% 30.06 in 10.0 mi West 4.6 mph - N/A   Clear
5:53 AM 28.9 °F - 27.0 °F 92% 30.06 in 10.0 mi Calm Calm - N/A   Clear
6:53 AM 30.9 °F - 28.0 °F 89% 30.08 in 10.0 mi Calm Calm - N/A   Clear
7:53 AM 33.1 °F - 28.9 °F 85% 30.09 in 10.0 mi Calm Calm - N/A   Clear
8:53 AM 44.1 °F - 36.0 °F 73% 30.07 in 10.0 mi Calm Calm - N/A   Partly Cloudy
9:53 AM 54.0 °F - 41.0 °F 62% 30.03 in 10.0 mi West 9.2 mph - N/A   Overcast
10:53 AM 55.9 °F - 39.0 °F 53% 30.01 in 10.0 mi WSW 12.7 mph - N/A   Mostly Cloudy
11:53 AM 57.0 °F - 37.9 °F 49% 30.00 in 9.0 mi WSW 12.7 mph - N/A   Mostly Cloudy
12:53 PM 57.9 °F - 36.0 °F 44% 29.98 in 10.0 mi West 12.7 mph - N/A   Mostly Cloudy
1:53 PM 55.9 °F - 34.0 °F 44% 29.98 in 10.0 mi WSW 16.1 mph 20.7 mph N/A   Scattered Clouds
2:53 PM 54.0 °F - 30.0 °F 40% 29.98 in 10.0 mi West 15.0 mph - N/A   Partly Cloudy
3:53 PM 52.0 °F - 27.0 °F 38% 29.97 in 10.0 mi West 9.2 mph - N/A   Clear
4:53 PM 43.0 °F 37.2 °F 25.0 °F 49% 29.97 in 10.0 mi WNW 10.4 mph - N/A   Clear
5:53 PM 42.1 °F - 27.0 °F 55% 29.99 in 10.0 mi Calm Calm - N/A   Clear
6:53 PM 39.0 °F - 26.1 °F 60% 29.99 in 10.0 mi Calm Calm - N/A   Clear
7:53 PM 32.0 °F 26.4 °F 26.1 °F 79% 29.98 in 10.0 mi West 5.8 mph - N/A   Clear
8:53 PM 28.9 °F 22.8 °F 25.0 °F 85% 29.94 in 10.0 mi WSW 5.8 mph - N/A   Clear
9:53 PM 32.0 °F 28.7 °F 27.0 °F 82% 29.90 in 10.0 mi WSW 3.5 mph - N/A   Mostly Cloudy
10:53 PM 30.0 °F 25.2 °F 25.0 °F 82% 29.86 in 10.0 mi West 4.6 mph - N/A   Overcast
11:53 PM 33.1 °F 27.7 °F 27.0 °F 78% 29.82 in 10.0 mi West 5.8 mph - N/A   Overcast